Regional Weather Roundup
Issued by NWS

Home | Current Version | Previous Version | Graphics & Text | Print | Product List | Glossary Off
Versions: 1 2 3 4 5 6 7 8 9 10 11 12 13 14 15 16 17 18 19 20 21 22 23 24 25 26 27 28 29 30 31 32 33 34 35 36 37 38 39 40 41 42 43 44 45 46 47 48 49 50

000
ASUS43 KTOP 030259
RWRKS

WEATHER ROUNDUP FOR KANSAS
NATIONAL WEATHER SERVICE GOODLAND KS
1000 PM CDT SUN AUG 02 2015

NOTE:  "FAIR" INDICATES FEW OR NO CLOUDS BELOW 12,000 FEET WITH NO
SIGNIFICANT WEATHER AND/OR OBSTRUCTIONS TO VISIBILITY.

KSZ001>006-013>018-027>032-041>047-030400-
NORTHWEST KANSAS

CITY           SKY/WX    TMP DP  RH WIND       PRES   REMARKS
GOODLAND       MOCLDY    76  56  49 E18G29    30.02R
HAYS           MOCLDY    82  64  54 S8        29.93R THUNDER
HILL CITY      CLOUDY    82  57  42 VRB5      29.95R
RUSSELL        MOCLDY    83  69  62 S10       29.89S
$$

KSZ061>065-074>080-084>089-030400-
SOUTHWEST KANSAS

CITY           SKY/WX    TMP DP  RH WIND       PRES   REMARKS
DODGE CITY     CLEAR     77  66  68 SE9       29.96R
ELKHART          N/A     77  68  74 SE5         N/A
GARDEN CITY    PTCLDY    77  65  66 SE7       29.96R
GREAT BEND     PTCLDY    79  68  69 S8        29.92R
LIBERAL        MOCLDY    81  63  54 SE8       29.94R
PRATT          PTCLDY    79  66  65 SE5       29.95R
$$

KSZ066>073-081>083-090>101-030400-
SOUTHEAST KANSAS

CITY           SKY/WX    TMP DP  RH WIND       PRES   REMARKS
CHANUTE        CLEAR     75  64  68 S8        29.91R
COFFEYVILLE    CLEAR     79  64  60 SW3       29.91R
HUTCHINSON     CLEAR     79  70  74 S3        29.92R
MEDICINE LODGE   N/A     80  71  74 E6        29.91R
NEWTON         CLEAR     77  66  69 S7        29.94R
PARSONS        CLEAR     76  67  73 S3        29.93R
WICHITA INTL   PTCLDY    79  68  69 S7        29.91R
WICHITA JABRA  CLEAR     79  68  69 S8        29.92R
WINFIELD       CLEAR     77  68  73 SE6       29.93R
$$

KSZ007>012-019>026-033>040-048>060-102>105-030400-
NORTHEAST KANSAS

CITY           SKY/WX    TMP DP  RH WIND       PRES   REMARKS
CONCORDIA      MOCLDY    82  68  62 S12       29.86R
EMPORIA        PTCLDY    76  68  76 S8        29.89R
LAWRENCE       PTCLDY    80  71  74 S5        29.85R
MANHATTAN      MOCLDY    80  71  74 SW6       29.86R
OLATHE IND     PTCLDY    80  70  71 S8        29.88R
OLATHE EXE     PTCLDY    79  70  74 S6        29.86S
SALINA         MOCLDY    84  70  62 S8        29.86R
TOPEKA BILLARD PTCLDY    83  72  69 S5        29.85R
TOPEKA FORBES  PTCLDY    81  70  69 S7        29.87R
$$


USA.gov is the U.S. government's official web portal to all federal, state and local government web resources and services.